Meteo Giornale » Osservazioni meteo Italia » Pescara

ore: 03:18 - Osservazioni Meteo Pescara
Lat. 42° 26' N Lon. 14° 12' E Alt. 10 metri s.l.m.

nebbia Europe/Rome

5 °C

Banco di Nebbia

Temp. 24 Ore

5 °C

11 °C

Nord

5.5 Km/h

Dew point 5 °C

Umidità 100 %

Visibilità  0.35 Km

Il sole sorge alle ore 07:20

Il sole tramonta alle ore 17:11

Data e Ora Cielo e Fenomeni T °C DP °C Um. % Pres. hPa Vis. km Vento km/h
Oggi h: 03:18 nebbia Banco di Nebbia 5 5 100 1020 0.35 N 5.5
Oggi h: 03:07 nebbia Nebbia 5 5 100 1020 0.75 N 1.8
Oggi h: 03:05 foschia Foschia 5 5 100 1020 1 N 1.8
Oggi h: 03:01 foschia Foschia 6 5 93 1020 2 N 1.8
Oggi h: 02:50 nebbia Nebbia 6 5 93 1020 0.55 N 3.7
Oggi h: 02:22 foschia Foschia 6 6 100 1020 1 N 1.8
Oggi h: 01:50 foschia Foschia 6 6 100 1020 2 N 1.8
Oggi h: 00:56 foschia Foschia 5 5 100 1020 1 N 3.7
Oggi h: 00:50 foschia Foschia 5 5 100 1020 2 N 3.7
Oggi h: 00:27 coperto_pioggia Pioggia Debole Nebbia 5 5 100 1020 0.6 N 5.5
Oggi h: 00:19 coperto_pioggia Pioggia Debole Nebbia 5 5 100 1020 0.9 SO 7.4
Oggi h: 00:17 coperto_pioggia Pioggia Debole Nebbia 5 5 100 1020 0.8 N 5.5
Oggi h: 00:05 coperto_pioggia Pioggia Debole Banco di Nebbia 6 5 93 1020 0.25 N 3.7
Ieri h: 23:50 coperto_pioggia Pioggia Debole Banco di Nebbia 5 5 100 1020 0.4 N 3.7
Ieri h: 23:29 nebbia Nebbia 5 5 100 1020 0.1 N 1.8
Ieri h: 23:13 nebbia Nebbia 6 5 93 1020 0.9 N 3.7
Ieri h: 22:50 foschia Foschia 6 6 100 1020 2 N 3.7
Ieri h: 20:50 foschia Foschia 8 6 87 1020 2 N 5.5
Ieri h: 19:50 molto_nuvoloso Molto Nuvoloso 9 7 87 1020 6 N 1.8
Ieri h: 18:50 molto_nuvoloso Molto Nuvoloso 10 8 87 1020 6 N 3.7
Ieri h: 16:50 foschia Foschia 10 8 87 1020 4 N/NO 9.3
Ieri h: 15:50 foschia Foschia 10 8 87 1020 4 N 3.7
Ieri h: 14:50 foschia Foschia 10 8 87 1020 4 N/NE 9.3
Ieri h: 13:50 molto_nuvoloso Molto Nuvoloso 11 8 81 1020 6 N 13
Ieri h: 12:50 molto_nuvoloso Molto Nuvoloso 11 7 76 1020 6 NE 7.4
Ieri h: 11:50 foschia Foschia 11 8 81 1021 5 N 5.5
Ieri h: 10:50 foschia Foschia 10 7 81 1021 5 N 5.5
Ieri h: 08:50 foschia Foschia 8 7 93 1021 4 N 3.7
Ieri h: 07:50 foschia Foschia 7 6 93 1021 3 N 3.7
Ieri h: 06:50 foschia Foschia 7 6 93 1021 4 SO 7.4
Ieri h: 05:50 foschia Foschia 7 6 93 1021 4 N 5.5
Ieri h: 04:50 foschia Foschia 7 6 93 1021 3 N 3.7
Ieri h: 03:50 foschia Foschia 6 6 100 1022 2 N 5.5
Ieri h: 03:09 foschia Foschia 6 5 93 1022 2 N 5.5
Ieri h: 02:50 foschia Foschia 6 5 93 1022 3 N 5.5